www.pogodaiklimat.ru

Погода и климат >> Архив погоды >> Россия >> Хабаровский край >> Байдуков


ПОГОДА в Байдукове

  • Прогноз погоды в Байдукове
  • Монитор погоды в Байдукове
  • Климат города

АРХИВ ПОГОДЫ в Байдукове

Время (UTC), дата Ветер
(напр.,м/с)
 
Видим.   Явления Облачность Т
(С)
Тd
(С)
f
(%)
Тe
(С)
Тes
(С)
Комфортность P
(гПа)
Po
(гПа)
Тmin
(С)
Tmax
(С)
R
(мм)
S
(см)
03 16.03 СЗ 6 50 км 6 баллов -10.1 -11.8 87 -19 -17 1020.7 1020.0
09 16.03 З 6 50 км 1 балл -14.7 -16.9 83 -24 -24 1019.4 1018.7 -8.1
15 16.03 СЗ 6 50 км ясно -18.7 -21.0 82 -29 -29 1019.4 1018.7
21 16.03 СЗ 4 50 км 2 балла -20.1 -22.9 78 -29 -29 1019.4 1018.7 -20.8
03 17.03 СЗ 6 50 км 2 балла -7.4 -9.9 82 -16 -13 1019.4 1018.7
09 17.03 СЗ 6 50 км 2 балла -12.6 -14.3 87 -22 -22 1019.4 1018.7 -6.0
15 17.03 З 6 50 км 4 балла -17.1 -19.1 84 -27 -27 1019.4 1018.7
21 17.03 СЗ 7 50 км 4 балла -14.8 -16.7 85 -25 -25 1019.4 1018.7 -17.7
03 18.03 СЗ 10 50 км 10 баллов -5.4 -8.3 80 -15 -15 1019.3 1018.7
09 18.03 СЗ 8 50 км позёмок 6 баллов -7.7 -10.7 79 -17 -17 1019.4 1018.7 -4.0
15 18.03 СЗ 8 50 км позёмок ясно -8.7 -11.7 79 -18 -18 1019.4 1018.7
21 18.03 СЗ 8 50 км позёмок 2 балла -9.7 -13.0 77 -19 -19 1020.7 1020.0 -10.9
03 19.03 СЗ 11 50 км позёмок 4 балла -5.6 -9.3 75 -16 -15 1020.7 1020.0
09 19.03 З 6 50 км 7 баллов -10.9 -13.8 79 -20 -20 1020.7 1020.0 -5.1
15 19.03 СЗ 8 50 км 7 баллов -9.2 -15.1 62 -19 -19 1019.4 1018.7
21 19.03 СЗ 6 50 км 2 балла -12.4 -16.9 69 -21 -21 1018.0 1017.3 -14.5
03 20.03 СЗ 8 50 км ясно -5.9 -9.9 73 -15 -13 1018.0 1017.3
09 20.03 СЗ 6 50 км ясно -11.4 -14.9 75 -20 -20 1016.7 1016.0 -5.7
15 20.03 З 3 50 км ясно -16.1 -19.8 73 -23 -23 1015.4 1014.7
21 20.03 Ю 4 50 км ясно -19.8 -22.9 76 -29 -29 1014.0 1013.3 -19.8
03 21.03 СЗ 1 50 км 1 балл -8.1 -12.2 72 -10 -2 1014.0 1013.3
09 21.03 СЗ 6 50 км 1 балл -11.4 -13.8 82 -20 -20 1015.4 1014.7 -5.7
15 21.03 З 6 50 км ясно -14.7 -16.7 85 -24 -24 1015.4 1014.7
21 21.03 З 6 50 км 2 балла -14.6 -17.0 82 -24 -24 1014.0 1013.3 -16.3
03 22.03 СЗ 5 50 км 10 баллов -4.9 -10.5 65 -12 -12 1013.9 1013.3
09 22.03 С 7 50 км 10 баллов -4.7 -7.3 82 -13 -13 1015.3 1014.7 -4.0
15 22.03 СЗ 6 10 км слабый снег 10 баллов -4.4 -5.6 91 -12 -12 1015.3 1014.7
21 22.03 СЗ 7 50 км 10 баллов -5.4 -6.6 91 -14 -14 1015.3 1014.7 -5.5 0.6

 

Местоположение метеостанции Байдуков (Хабаровский край, Россия): широта 53.30 долгота 141.40 высота над уровнем моря 5 м.

В архиве по умолчанию представлена погода в Байдукове за последнюю неделю. Архивные данные за месяц целиком и за предыдущие месяцы, начиная с января 2011 года, Вы можете получить, выбрав интересующий диапазон дат из раскрывающегося списка и нажав кнопку "Ввод!".

Внимание! Время в таблицах - всемирное. Для получения местного времени необходимо прибавить поправку, которая в Байдукове равна 10 ч.

Смотрите также архив погоды в соседних городах и на ближайших метеорологических станциях:

Погода в Николаевск-на-Амуре (Хабаровский край, Россия) (50 км)
Погода в Джаоре (Хабаровский край, Россия) (71 км)
Погода в Москальво (Сахалинская область, Россия) (79 км)
Погода в Оха (Сахалинская область, Россия) (102 км)
Погода в Литке (Хабаровский край, Россия) (102 км)
Погода в Одопту (Сахалинская область, Россия) (120 км)
Погода в Погибях (Сахалинская область, Россия) (121 км)
Погода в Богородском (Хабаровский край, Россия) (122 км)
Погода в Ныврово (Сахалинская область, Россия) (139 км)
Погода в Вал (Сахалинская область, Россия) (152 км)

Пояснения к столбцам:

Ветер - указаны скорость ветра в м/с - средняя за 10 мин, порывы в срок и между сроками (в фигурных скобках) и направление, откуда дует ветер: С - северный, СВ - северо-восточный, В - восточный, ЮВ - юго-восточный, Ю - южный, ЮЗ - юго-западный, З - западный, СЗ - северо-западный.
Видимость - горизонтальная дальность видимости в метрах или километрах. При видимости от 1 до 10 км при отсутствии осадков обычно наблюдается дымка, при ухудшении видимости до 1 км и менее - туман. В сухую погоду видимость может ухудшаться дымом, пылью или мглою.
Явления - указаны атмосферные явления, наблюдавшиеся в срок или в последний час перед сроком; фигурными скобками обозначены явления, наблюдавшиеся между сроками (за 1-3 часа до срока); квадратными скобками обозначены град или гололедные отложения с указанием их диаметра в мм.
Облачность - указаны через наклонную черту общая и нижняя облачность в баллах и высота нижней границы облаков в метрах; квадратными скобками обозначены формы облаков: Ci - перистые, Cs - перисто-слоистые, Cc - перисто-кучевые, Ac - высококучевые, As - высокослоистые, Sc - слоисто-кучевые, Ns - слоисто-дождевые, Cu - кучевые, Cb - кучево-дождевые. Подробнее классификацию облаков см. в Атласе облаков (PDF).
T - Температура воздуха - температура, измеренная на высоте 2 м над землей.
Td - Температура точки росы - температура, при понижении до которой содержащийся в воздухе водяной пар достигнет насыщения.
f - Относительная влажность воздуха - влажноcть воздуха, измеренная на высоте 2 м над землей.
Te - Эффективная температура - температура, которую ощущает одетый по сезону человек в тени. Характеристика душности погоды. При расчете учитывается влияние влажности воздуха и скорости ветра на теплоощущения человека.
Tes - Эффективная температура на солнце - температура, которую ощущает человек, с поправкой на солнечный нагрев. Характеристика знойности погоды. Зависит от высоты солнца над горизонтом, облачности и скорости ветра. Ночью, в пасмурную погоду, а также при ветре 12 м/с и более поправка равна нулю.
P - Атмосферное давление - приведенное к уровню моря атмосферное давление.
Po - Атмосферное давление - измеренное на уровне метеостанции атмосферное давление.
Tmin - Минимальная температура - минимум температуры воздуха на высоте 2 м над землей.
Tmax - Максимальная температура - максимум температуры воздуха на высоте 2 м над землей.
R - Количество осадков - Количество выпавших осадков, мм. При наведении курсора мыши на число - период времени, за который выпало указанное количество осадков.
S - Снежный покров - Высота снежного покрова, см. При наведении курсора мыши на число - состояние снежного покрова и степень покрытия местности в баллах.